EWG20W LOWS-EDDB

Flight info

Callsign EWG20W
Flight time 0h 49m
Altitude 34000
Route INROM DCT SIMBA Y700 NENUM DCT EPTEU DCT RUDNO T203 TIVDA/N0431F330 DCT ETVIS DCT NAVEK DCT GAVLI/N0430F340 T203 ATGUP ATGUP1L
Aircraft A319/M-SDE3FGHIRWY/LB1

Departure

Time 2026-05-04 17:58
Airport Salzburg Airport (LOWS)

Arrival

Time 2026-05-04 18:47
Airport Berlin Brandenburg Airport (EDDB)
Time Latitude Longitude Altitude Speed Heading
2026-05-04 17:11 47.79259 12.99814 1422 ft 0 kts 282°
2026-05-04 17:48 47.79262 12.99813 1422 ft 0 kts 310°
2026-05-04 17:48 47.79266 12.99814 1422 ft 0 kts 351°
2026-05-04 17:49 47.79268 12.99820 1422 ft 0 kts 36°
2026-05-04 17:49 47.79272 12.99835 1422 ft 4 kts 62°
2026-05-04 17:49 47.79296 12.99900 1422 ft 10 kts 61°
2026-05-04 17:49 47.79336 12.99996 1422 ft 8 kts 64°
2026-05-04 17:50 47.79355 13.00073 1421 ft 11 kts 82°
2026-05-04 17:50 47.79303 13.00145 1420 ft 12 kts 157°
2026-05-04 17:50 47.79208 13.00206 1420 ft 18 kts 156°
2026-05-04 17:50 47.79075 13.00289 1420 ft 24 kts 157°
2026-05-04 17:51 47.78955 13.00366 1420 ft 14 kts 157°
2026-05-04 17:51 47.78843 13.00436 1420 ft 20 kts 156°
2026-05-04 17:51 47.78693 13.00531 1420 ft 24 kts 157°
2026-05-04 17:51 47.78587 13.00598 1420 ft 13 kts 156°
2026-05-04 17:52 47.78483 13.00665 1420 ft 19 kts 157°
2026-05-04 17:52 47.78409 13.00712 1420 ft 9 kts 157°
2026-05-04 17:52 47.78387 13.00726 1420 ft 0 kts 157°
2026-05-04 17:54 47.78384 13.00728 1420 ft 2 kts 157°
2026-05-04 17:54 47.78351 13.00748 1420 ft 8 kts 157°
2026-05-04 17:54 47.78289 13.00788 1420 ft 10 kts 156°
2026-05-04 17:54 47.78238 13.00827 1420 ft 8 kts 148°
2026-05-04 17:55 47.78218 13.00850 1420 ft 0 kts 138°
2026-05-04 17:56 47.78209 13.00862 1420 ft 5 kts 135°
2026-05-04 17:56 47.78183 13.00951 1422 ft 13 kts 89°
2026-05-04 17:56 47.78207 13.01055 1419 ft 10 kts 60°
2026-05-04 17:56 47.78247 13.01078 1419 ft 3 kts 337°
2026-05-04 17:57 47.78249 13.01077 1419 ft 0 kts 337°
2026-05-04 17:57 47.78266 13.01066 1421 ft 11 kts 338°
2026-05-04 17:57 47.78554 13.00887 1420 ft 80 kts 337°
2026-05-04 17:57 47.79261 13.00440 1423 ft 141 kts 337°
2026-05-04 17:58 47.80203 12.99844 1950 ft 146 kts 338°
2026-05-04 17:58 47.81133 12.99260 2645 ft 145 kts 338°
2026-05-04 17:58 47.82163 12.98931 3043 ft 163 kts
2026-05-04 17:58 47.83292 12.99532 3357 ft 183 kts 36°
2026-05-04 17:59 47.84377 13.00725 3718 ft 207 kts 37°
2026-05-04 17:59 47.85607 13.02065 4180 ft 228 kts 37°
2026-05-04 17:59 47.88607 13.04595 5419 ft 265 kts
2026-05-04 18:00 47.90461 13.04533 6420 ft 270 kts 352°
2026-05-04 18:00 47.92341 13.04169 7407 ft 274 kts 351°
2026-05-04 18:00 47.94247 13.03774 8386 ft 280 kts 350°
2026-05-04 18:00 47.96192 13.03363 9352 ft 285 kts 349°
2026-05-04 18:01 47.98174 13.02945 10261 ft 291 kts 349°
2026-05-04 18:01 48.00253 13.02506 10717 ft 314 kts 349°
2026-05-04 18:01 48.02502 13.02092 11073 ft 337 kts 352°
2026-05-04 18:02 48.07316 13.01412 12515 ft 353 kts 353°
2026-05-04 18:02 48.09746 13.01097 13293 ft 358 kts 353°
2026-05-04 18:02 48.12248 13.00765 14032 ft 363 kts 353°
2026-05-04 18:02 48.14774 13.00417 14746 ft 366 kts 353°
2026-05-04 18:03 48.17326 13.00053 15473 ft 370 kts 353°
2026-05-04 18:03 48.19902 12.99679 16199 ft 373 kts 353°
2026-05-04 18:03 48.22503 12.99300 16932 ft 376 kts 353°
2026-05-04 18:03 48.25120 12.98918 17651 ft 379 kts 353°
2026-05-04 18:04 48.27760 12.98535 18347 ft 382 kts 353°
2026-05-04 18:04 48.30418 12.98153 18973 ft 385 kts 353°
2026-05-04 18:04 48.35788 12.97383 20272 ft 390 kts 352°
2026-05-04 18:05 48.38510 12.96994 20883 ft 394 kts 352°
2026-05-04 18:05 48.41244 12.96604 21506 ft 396 kts 352°
2026-05-04 18:05 48.43999 12.96206 22128 ft 399 kts 352°
2026-05-04 18:05 48.46768 12.95804 22750 ft 401 kts 352°
2026-05-04 18:06 48.52366 12.94989 23880 ft 406 kts 352°
2026-05-04 18:06 48.55154 12.94566 24356 ft 409 kts 351°
2026-05-04 18:06 48.58019 12.94025 24831 ft 411 kts 349°
2026-05-04 18:07 48.60861 12.93400 25285 ft 414 kts 348°
2026-05-04 18:07 48.63723 12.92727 25738 ft 417 kts 348°
2026-05-04 18:07 48.66601 12.92044 26184 ft 420 kts 348°
2026-05-04 18:07 48.69474 12.91377 26617 ft 424 kts 348°
2026-05-04 18:08 48.72405 12.90713 27047 ft 427 kts 349°
2026-05-04 18:08 48.75352 12.90063 27470 ft 430 kts 349°
2026-05-04 18:08 48.78327 12.89417 27894 ft 433 kts 349°
2026-05-04 18:08 48.81322 12.88771 28331 ft 436 kts 349°
2026-05-04 18:09 48.87359 12.87461 29116 ft 440 kts 349°
2026-05-04 18:09 48.93449 12.86124 29683 ft 444 kts 349°
2026-05-04 18:10 48.96513 12.85442 29893 ft 446 kts 349°
2026-05-04 18:10 48.99584 12.84757 29946 ft 446 kts 349°
2026-05-04 18:10 49.05673 12.83412 29942 ft 441 kts 348°
2026-05-04 18:11 49.11725 12.81960 29944 ft 438 kts 343°
2026-05-04 18:11 49.17274 12.78391 29951 ft 430 kts 324°
2026-05-04 18:12 49.21738 12.72540 29950 ft 425 kts 311°
2026-05-04 18:12 49.25890 12.66100 29948 ft 425 kts 311°
2026-05-04 18:13 49.30637 12.60723 29957 ft 433 kts 336°
2026-05-04 18:13 49.36621 12.59772 29954 ft 443 kts
2026-05-04 18:14 49.39558 12.61289 29953 ft 447 kts 26°
2026-05-04 18:14 49.44799 12.66460 29941 ft 448 kts 23°
2026-05-04 18:15 49.50836 12.69347 30201 ft 462 kts 13°
2026-05-04 18:15 49.57067 12.71997 30910 ft 465 kts 13°
2026-05-04 18:15 49.60191 12.73309 31341 ft 464 kts 13°
2026-05-04 18:16 49.63305 12.74616 31784 ft 464 kts 13°
2026-05-04 18:16 49.66415 12.75927 32237 ft 463 kts 13°
2026-05-04 18:16 49.69515 12.77247 32695 ft 463 kts 13°
2026-05-04 18:17 49.75710 12.79963 33662 ft 461 kts 13°
2026-05-04 18:17 49.78797 12.81334 33935 ft 461 kts 13°
2026-05-04 18:18 49.87991 12.85420 33968 ft 460 kts 13°
2026-05-04 18:18 49.94152 12.88130 33983 ft 460 kts 13°
2026-05-04 18:19 50.03367 12.92204 33973 ft 459 kts 13°
2026-05-04 18:19 50.09505 12.94941 33972 ft 458 kts 13°
2026-05-04 18:20 50.15650 12.97693 33982 ft 458 kts 13°
2026-05-04 18:20 50.21788 13.00434 33977 ft 458 kts 13°
2026-05-04 18:21 50.27878 13.03159 33972 ft 458 kts 13°
2026-05-04 18:21 50.33998 13.05976 33970 ft 458 kts 14°
2026-05-04 18:22 50.40107 13.08868 33964 ft 458 kts 14°
2026-05-04 18:22 50.46208 13.11758 33967 ft 458 kts 14°
2026-05-04 18:23 50.52227 13.15119 33964 ft 462 kts 24°
2026-05-04 18:23 50.57957 13.19691 33964 ft 462 kts 22°
2026-05-04 18:24 50.60978 13.21284 33977 ft 457 kts 10°
2026-05-04 18:24 50.64080 13.22402 33974 ft 457 kts
2026-05-04 18:24 50.70276 13.24596 33973 ft 457 kts
2026-05-04 18:25 50.76487 13.26782 33864 ft 455 kts
2026-05-04 18:25 50.79585 13.27873 33306 ft 457 kts
2026-05-04 18:25 50.82692 13.28974 32727 ft 459 kts
2026-05-04 18:26 50.85769 13.30070 32136 ft 460 kts
2026-05-04 18:26 50.88903 13.31189 31517 ft 462 kts
2026-05-04 18:26 50.92047 13.32314 30872 ft 465 kts
2026-05-04 18:26 50.95213 13.33454 30202 ft 467 kts
2026-05-04 18:27 50.98393 13.34606 29482 ft 469 kts
2026-05-04 18:27 51.01571 13.35784 28961 ft 466 kts 10°
2026-05-04 18:27 51.04711 13.36967 28475 ft 462 kts 10°
2026-05-04 18:27 51.07822 13.38151 28012 ft 458 kts 10°
2026-05-04 18:28 51.09870 13.38934 27703 ft 455 kts 10°
2026-05-04 18:28 51.12937 13.40104 27229 ft 452 kts 10°
2026-05-04 18:28 51.15984 13.41265 26753 ft 448 kts 10°
2026-05-04 18:28 51.19005 13.42412 26269 ft 445 kts 10°
2026-05-04 18:29 51.22001 13.43546 25783 ft 441 kts 10°
2026-05-04 18:29 51.24981 13.44669 25277 ft 438 kts 10°
2026-05-04 18:29 51.27938 13.45779 24780 ft 435 kts 10°
2026-05-04 18:29 51.30875 13.46888 24301 ft 432 kts 10°
2026-05-04 18:30 51.36686 13.49103 23341 ft 426 kts 11°
2026-05-04 18:30 51.39560 13.50200 22821 ft 423 kts 11°
2026-05-04 18:30 51.42418 13.51290 22321 ft 420 kts 11°
2026-05-04 18:31 51.45257 13.52371 21840 ft 417 kts 11°
2026-05-04 18:31 51.48068 13.53443 21383 ft 415 kts 11°
2026-05-04 18:31 51.50867 13.54514 20955 ft 412 kts 11°
2026-05-04 18:31 51.53654 13.55582 20523 ft 409 kts 11°
2026-05-04 18:32 51.56422 13.56645 20080 ft 407 kts 11°
2026-05-04 18:32 51.59161 13.57700 19638 ft 404 kts 11°
2026-05-04 18:32 51.61891 13.58752 19192 ft 402 kts 11°
2026-05-04 18:32 51.64601 13.59798 18748 ft 399 kts 11°
2026-05-04 18:33 51.67256 13.60824 18311 ft 397 kts 11°
2026-05-04 18:33 51.69935 13.61857 17803 ft 394 kts 11°
2026-05-04 18:33 51.72595 13.62884 17292 ft 391 kts 11°
2026-05-04 18:33 51.75244 13.63905 16609 ft 393 kts 11°
2026-05-04 18:34 51.77918 13.64938 15799 ft 398 kts 11°
2026-05-04 18:34 51.80617 13.65982 15144 ft 399 kts 11°
2026-05-04 18:34 51.83319 13.67028 14598 ft 396 kts 11°
2026-05-04 18:34 51.85984 13.68061 14054 ft 393 kts 11°
2026-05-04 18:35 51.88634 13.69091 13469 ft 390 kts 11°
2026-05-04 18:35 51.91256 13.70114 12870 ft 386 kts 11°
2026-05-04 18:35 51.93855 13.71130 12283 ft 382 kts 11°
2026-05-04 18:35 51.96430 13.72140 11793 ft 376 kts 11°
2026-05-04 18:36 51.98908 13.73117 11548 ft 364 kts 11°
2026-05-04 18:36 52.01332 13.74076 11298 ft 354 kts 11°
2026-05-04 18:36 52.03690 13.75014 11050 ft 344 kts 11°
2026-05-04 18:36 52.05987 13.75933 10802 ft 334 kts 11°
2026-05-04 18:37 52.08202 13.76825 10554 ft 322 kts 11°
2026-05-04 18:37 52.10343 13.77695 10310 ft 312 kts 11°
2026-05-04 18:37 52.12419 13.78544 10091 ft 303 kts 11°
2026-05-04 18:37 52.14448 13.79379 9754 ft 299 kts 11°
2026-05-04 18:38 52.16457 13.80206 9349 ft 296 kts 11°
2026-05-04 18:38 52.18443 13.81018 8832 ft 293 kts 11°
2026-05-04 18:38 52.20419 13.81815 8350 ft 291 kts 11°
2026-05-04 18:38 52.22375 13.82599 7862 ft 288 kts 11°
2026-05-04 18:39 52.24310 13.83366 7387 ft 286 kts 11°
2026-05-04 18:39 52.26233 13.84117 6921 ft 283 kts 11°
2026-05-04 18:39 52.28143 13.84851 6461 ft 280 kts 11°
2026-05-04 18:39 52.30035 13.85565 5983 ft 278 kts 11°
2026-05-04 18:40 52.31912 13.86261 5510 ft 275 kts 11°
2026-05-04 18:40 52.33715 13.86921 5473 ft 256 kts 11°
2026-05-04 18:40 52.35385 13.87534 5471 ft 236 kts 11°
2026-05-04 18:40 52.36916 13.88090 5463 ft 215 kts
2026-05-04 18:41 52.38285 13.87871 5479 ft 186 kts 332°
2026-05-04 18:41 52.39225 13.86574 5284 ft 173 kts 309°
2026-05-04 18:41 52.39965 13.85058 4923 ft 169 kts 306°
2026-05-04 18:41 52.40673 13.83510 4490 ft 169 kts 304°
2026-05-04 18:42 52.41068 13.81728 4039 ft 167 kts 279°
2026-05-04 18:42 52.41215 13.79847 3628 ft 166 kts 276°
2026-05-04 18:42 52.41328 13.77988 3264 ft 166 kts 275°
2026-05-04 18:42 52.41383 13.76109 3014 ft 164 kts 265°
2026-05-04 18:43 52.41030 13.74317 2911 ft 167 kts 247°
2026-05-04 18:43 52.40598 13.72549 2703 ft 168 kts 250°
2026-05-04 18:43 52.40173 13.70759 2496 ft 169 kts 250°
2026-05-04 18:43 52.39756 13.68979 2297 ft 167 kts 251°
2026-05-04 18:44 52.39344 13.67205 2065 ft 166 kts 251°
2026-05-04 18:44 52.39073 13.66051 1922 ft 160 kts 250°
2026-05-04 18:44 52.38572 13.63951 1658 ft 140 kts 251°
2026-05-04 18:44 52.38231 13.62513 1448 ft 131 kts 251°
2026-05-04 18:45 52.37922 13.61141 1266 ft 128 kts 252°
2026-05-04 18:45 52.37599 13.59783 1111 ft 127 kts 251°
2026-05-04 18:45 52.37284 13.58438 980 ft 127 kts 252°
2026-05-04 18:45 52.36967 13.57089 814 ft 127 kts 251°
2026-05-04 18:46 52.36648 13.55739 635 ft 127 kts 251°
2026-05-04 18:46 52.36329 13.54401 473 ft 126 kts 251°
2026-05-04 18:46 52.36017 13.53082 312 ft 126 kts 251°
2026-05-04 18:46 52.35701 13.51732 161 ft 119 kts 250°
2026-05-04 18:47 52.35453 13.50669 155 ft 79 kts 248°
2026-05-04 18:47 52.35316 13.50098 155 ft 31 kts 249°
2026-05-04 18:47 52.35238 13.49746 155 ft 35 kts 258°
2026-05-04 18:47 52.35234 13.49468 155 ft 11 kts 276°
2026-05-04 18:48 52.35244 13.49351 155 ft 6 kts 279°
2026-05-04 18:48 52.35246 13.49331 155 ft 0 kts 279°
2026-05-04 18:48 52.35250 13.49303 155 ft 6 kts 288°
2026-05-04 18:49 52.35292 13.49240 155 ft 10 kts 342°
2026-05-04 18:49 52.35347 13.49262 155 ft 10 kts 43°
2026-05-04 18:49 52.35383 13.49387 155 ft 12 kts 69°
2026-05-04 18:49 52.35422 13.49550 155 ft 19 kts 69°
2026-05-04 18:50 52.35477 13.49781 155 ft 24 kts 68°
2026-05-04 18:50 52.35524 13.49980 155 ft 18 kts 69°
2026-05-04 18:50 52.35579 13.50209 155 ft 25 kts 68°
2026-05-04 18:50 52.35649 13.50506 155 ft 23 kts 69°
2026-05-04 18:51 52.35687 13.50669 155 ft 14 kts 69°
2026-05-04 18:51 52.35717 13.50791 155 ft 9 kts 61°
2026-05-04 18:51 52.35783 13.50818 155 ft 12 kts 341°
2026-05-04 18:51 52.35875 13.50760 155 ft 18 kts 339°
2026-05-04 18:52 52.36010 13.50675 155 ft 18 kts 339°
2026-05-04 18:52 52.36093 13.50623 155 ft 11 kts 338°
2026-05-04 18:52 52.36143 13.50600 155 ft 2 kts 19°
2026-05-04 18:52 52.36154 13.50640 155 ft 7 kts 69°
2026-05-04 18:53 52.36167 13.50696 155 ft 4 kts 69°
2026-05-04 18:53 52.36175 13.50731 155 ft 1 kts 70°